[[{"header":{"parameterUnit":"m.s-1","parameterCategory":1,"la1":30.2991,"la2":30.254,"lo1":-89.0895,"lo2":-89.0444,"dy":0.0017,"dx":0.0017,"nx":28,"ny":28,"refTime":"2024-02-12T03:00:00:Z","depth":0,"parameterNumber":2,"parameterNumberName":"U-component_of_WINDS"},"data":[0,0,0,0,0,0,0,0,0,0,0,0,0,0,0,0,0,0,0,0,0,0,0,0,0,0,0,0,0,0,0,0,0,0,0,0,0,0,0,0,0,0,0,0,0,0,0,0,0,0,0,0,0,0,0,0,0,0,2.624,2.624,0,2.6207,2.6206,2.6206,2.6141,2.614,2.6139,2.6138,2.6101,2.6101,2.6101,0,0,0,0,0,0,0,0,0,0,0,0,0,2.6248,2.6248,2.624,2.624,2.6239,2.6207,2.6206,2.6206,2.6142,2.614,2.6139,2.6137,2.6101,2.6101,2.6101,0,0,0,0,0,0,0,0,0,0,0,0,0,2.6233,2.6248,2.624,2.6203,2.62,2.6207,2.6206,2.6206,2.6142,2.614,2.6138,2.6136,2.61,2.6101,2.6101,2.614,0,0,2.6102,2.6102,0,0,0,0,0,0,0,0,2.6234,2.6232,2.6209,2.6206,2.6202,2.6176,2.6195,2.6184,2.6142,2.6164,2.6138,2.6135,2.6127,2.6125,2.6123,2.6138,2.6137,2.6102,2.6102,2.6102,2.6102,0,0,0,0,0,0,0,2.6235,2.6233,2.6227,2.6209,2.6205,2.6188,2.6184,2.6193,2.6156,2.6162,2.6157,2.6154,2.6125,2.6123,2.6121,2.6136,2.6102,2.6102,2.6102,2.6102,2.6184,2.6186,0,0,0,0,0,0,2.6241,2.6235,2.6228,2.6226,2.6214,2.619,2.6185,2.6186,2.6156,2.615,2.6156,2.6151,2.6123,2.6121,2.612,2.6165,2.6102,2.6102,2.6102,2.6182,2.6185,2.6187,0,0,0,0,0,0,2.6242,2.6241,2.6229,2.6229,2.6226,2.6192,2.6194,2.6187,2.6184,2.6151,2.6144,2.616,2.6122,2.6119,2.6136,2.6162,2.6102,2.6103,2.618,2.6183,2.6186,2.6254,0,0,0,0,0,0,2.6242,2.6242,2.6256,2.623,2.6227,2.6246,2.6195,2.6187,2.6186,2.6179,2.6154,2.6148,2.612,2.6136,2.6137,2.6162,2.6103,2.6177,2.6181,2.6185,2.6249,2.6259,2.6267,0,0,0,0,0,2.6243,2.6276,2.6257,2.6257,2.6244,2.6248,2.6246,2.6214,2.6188,2.6202,2.6181,2.6149,2.616,2.6138,2.6138,2.6164,2.6176,2.618,2.6185,2.6245,2.6257,2.6267,0,0,0,0,0,0,2.6304,2.6271,2.6251,2.6276,2.6266,2.6237,2.6254,2.6227,2.6223,2.6217,2.6177,2.6172,2.6194,2.6181,2.6157,2.6201,2.6163,2.6168,2.6209,2.622,2.6229,2.6231,2.6103,0,0,0,0,0,2.6321,2.6328,2.6299,2.6324,2.632,2.6288,2.6289,2.6265,2.6252,2.6247,2.6227,2.6215,2.6216,2.6217,2.6216,2.6248,2.6242,2.6266,2.6275,2.6282,2.6286,2.6303,2.6314,2.6202,2.6202,2.6202,0,0,2.6355,2.6338,2.6344,2.6336,2.6325,2.6333,2.6285,2.6294,2.6299,2.6248,2.6263,2.6249,2.6233,2.6258,2.6267,2.6247,2.6317,2.6288,2.6294,2.6294,2.6309,2.632,2.6329,2.6205,2.6205,2.6204,0,0,2.6421,2.6409,2.643,2.6421,2.6405,2.6385,2.639,2.6366,2.6355,2.637,2.6332,2.6338,2.634,2.6331,2.6327,2.6394,2.6364,2.6394,2.6441,2.6458,2.6467,2.6475,2.6499,2.6508,2.6399,2.6399,2.6399,0,2.6465,2.6476,2.6443,2.6456,2.6454,2.641,2.6431,2.6423,2.6408,2.6408,2.6386,2.6389,2.6375,2.6398,2.6415,2.6413,2.6418,2.6396,2.6469,2.6476,2.6482,2.6505,2.6514,2.6403,2.6402,2.6402,2.6402,0,2.6531,2.6539,2.6558,2.6546,2.6546,2.6563,2.6533,2.6537,2.6515,2.6497,2.6513,2.6496,2.6491,2.6495,2.6472,2.6515,2.6504,2.6476,2.6436,2.6498,2.6518,2.6527,2.6408,2.6407,2.6406,2.6405,0,0,2.6632,2.6605,2.6612,2.6607,2.6589,2.6594,2.661,2.6607,2.6612,2.6604,2.6616,2.6621,2.6596,2.6591,2.6567,2.6583,2.6638,2.6553,2.6552,2.6569,2.6685,2.6706,2.6716,2.6619,2.662,2.6622,2.6686,0,2.6693,2.6719,2.6692,2.6722,2.673,2.6691,2.6704,2.6695,2.6679,2.6683,2.6666,2.667,2.6636,2.6634,2.6647,2.6628,2.666,2.6623,2.6629,2.663,2.6634,2.6727,2.6748,2.681,2.6694,2.6696,2.6697,0,2.6767,2.6765,2.6798,2.678,2.6782,2.6795,2.6791,2.6796,2.6785,2.6773,2.677,2.6742,2.6756,2.672,2.6739,2.6715,2.6716,2.6707,2.6709,2.6707,2.6666,2.6727,2.6829,2.6838,2.6709,2.6708,2.6707,0,2.6838,2.6843,2.6864,2.6861,2.684,2.6851,2.6842,2.683,2.6831,2.6828,2.6828,2.6826,2.6825,2.6825,2.6798,2.6774,2.6822,2.6782,2.6812,2.6812,2.6822,2.6821,2.6924,2.6824,2.6824,2.6824,2.6824,0,2.6909,2.693,2.6895,2.6908,2.6931,2.6901,2.6924,2.6912,2.6902,2.6911,2.6877,2.6887,2.6851,2.6857,2.6837,2.6857,2.6856,2.6847,2.6841,2.6849,2.6851,2.6849,2.6843,2.6826,2.6826,2.6825,2.6825,0,2.6991,2.6968,2.6988,2.6968,2.6964,2.6982,2.6965,2.6976,2.696,2.6972,2.6974,2.6947,2.6953,2.6927,2.6928,2.6914,2.6944,2.6931,2.6948,2.6944,2.6975,2.6973,2.708,2.7093,2.6985,2.6986,2.6987,0,2.7037,2.7053,2.7036,2.7041,2.7035,2.7043,2.7044,2.7015,2.7018,2.7009,2.7021,2.7025,2.7026,2.7037,2.7018,2.7018,2.7005,2.7043,2.7005,2.7014,2.7005,2.7005,2.7006,2.705,2.7051,2.7052,2.7053,0,2.7121,2.711,2.7114,2.7116,2.7119,2.7118,2.7114,2.712,2.7089,2.7095,2.7101,2.7102,2.7105,2.7108,2.7106,2.7097,2.7071,2.7066,2.7073,2.7081,2.709,2.7086,2.6969,2.7063,2.7062,2.7061,2.7061,2.706,2.7186,2.7199,2.719,2.7197,2.7192,2.719,2.72,2.7186,2.7192,2.7192,2.7175,2.7185,2.7176,2.717,2.7165,2.7172,2.7155,2.7164,2.7167,2.717,2.7175,2.7091,2.7172,2.7172,2.7171,2.7171,2.7171,0,2.7269,2.7262,2.7268,2.7266,2.7272,2.7248,2.7244,2.725,2.726,2.7254,2.7257,2.7265,2.727,2.7253,2.7255,2.7264,2.7252,2.7266,2.7264,2.7263,2.7191,2.7185,2.7276,2.7276,2.7276,2.7276,2.7276,2.7276,2.7312,2.7334,2.7322,2.7342,2.7334,2.7345,2.7345,2.7344,2.734,2.7351,2.7355,2.7345,2.7335,2.7336,2.734,2.7335,2.7337,2.7355,2.7345,2.7278,2.7268,2.7258,2.7252,2.7356,2.7356,2.7417,2.7417,2.7418]},{"header":{"parameterUnit":"m.s-1","parameterCategory":1,"la1":30.2991,"la2":30.254,"lo1":-89.0895,"lo2":-89.0444,"dy":0.0017,"dx":0.0017,"nx":28,"ny":28,"refTime":"2024-02-12T03:00:00:Z","depth":0,"parameterNumber":3,"parameterNumberName":"V-component_of_WINDS"},"data":[0,0,0,0,0,0,0,0,0,0,0,0,0,0,0,0,0,0,0,0,0,0,0,0,0,0,0,0,0,0,0,0,0,0,0,0,0,0,0,0,0,0,0,0,0,0,0,0,0,0,0,0,0,0,0,0,0,0,-5.8001,-5.8004,0,-5.8215,-5.8217,-5.822,-5.8217,-5.8214,-5.8211,-5.8208,-5.8427,-5.8435,-5.8444,0,0,0,0,0,0,0,0,0,0,0,0,0,-5.7591,-5.7599,-5.8001,-5.8004,-5.8007,-5.8214,-5.8217,-5.822,-5.8217,-5.8214,-5.821,-5.8207,-5.8424,-5.8434,-5.8445,0,0,0,0,0,0,0,0,0,0,0,0,0,-5.7783,-5.7601,-5.8001,-5.803,-5.8035,-5.8214,-5.8217,-5.8221,-5.8218,-5.8213,-5.8209,-5.8205,-5.8421,-5.8433,-5.8446,-5.861,0,0,-5.8485,-5.849,0,0,0,0,0,0,0,0,-5.7772,-5.7798,-5.8023,-5.8028,-5.8034,-5.8185,-5.8153,-5.8352,-5.8219,-5.8148,-5.8208,-5.8203,-5.835,-5.8368,-5.8418,-5.862,-5.863,-5.8486,-5.8494,-5.8499,-5.8503,0,0,0,0,0,0,0,-5.7759,-5.7789,-5.8086,-5.8026,-5.8033,-5.8033,-5.8055,-5.8191,-5.8271,-5.8154,-5.8154,-5.818,-5.8352,-5.8405,-5.8423,-5.8633,-5.8486,-5.8497,-5.8505,-5.851,-5.8981,-5.8985,0,0,0,0,0,0,-5.774,-5.7778,-5.8079,-5.8092,-5.789,-5.8043,-5.8069,-5.8141,-5.8269,-5.8285,-5.8183,-5.8179,-5.8386,-5.8408,-5.8431,-5.8631,-5.8499,-5.8511,-5.8518,-5.8976,-5.8982,-5.8987,0,0,0,0,0,0,-5.7731,-5.7767,-5.807,-5.7935,-5.7974,-5.8055,-5.8136,-5.8147,-5.82,-5.8291,-5.8305,-5.8223,-5.8383,-5.8413,-5.8565,-5.8639,-5.8517,-5.8528,-5.897,-5.8978,-5.8984,-5.9034,0,0,0,0,0,0,-5.7719,-5.7763,-5.7827,-5.7937,-5.7981,-5.8202,-5.814,-5.8154,-5.8222,-5.8219,-5.8332,-5.8347,-5.8382,-5.8546,-5.8578,-5.8654,-5.8538,-5.8964,-5.8974,-5.8982,-5.9026,-5.9042,-5.9056,0,0,0,0,0,-5.7705,-5.7833,-5.783,-5.7866,-5.8062,-5.8206,-5.8232,-5.827,-5.8228,-5.8293,-5.8351,-5.8343,-5.8625,-5.8562,-5.8598,-5.8679,-5.896,-5.8971,-5.8981,-5.902,-5.9039,-5.9056,0,0,0,0,0,0,-5.773,-5.7847,-5.7846,-5.8013,-5.81,-5.8205,-5.8288,-5.8289,-5.8389,-5.8382,-5.8424,-5.845,-5.8603,-5.8656,-5.8583,-5.8844,-5.8787,-5.8806,-5.8804,-5.8823,-5.8838,-5.8822,-5.8549,0,0,0,0,0,-5.7754,-5.7862,-5.7959,-5.8097,-5.814,-5.8207,-5.8271,-5.8292,-5.8384,-5.842,-5.849,-5.8579,-5.8687,-5.8758,-5.8863,-5.9033,-5.9058,-5.9107,-5.9121,-5.9133,-5.9149,-5.9243,-5.9266,-5.9023,-5.9023,-5.9023,0,0,-5.7807,-5.7885,-5.795,-5.8104,-5.8173,-5.8283,-5.8237,-5.8356,-5.8438,-5.8438,-5.8587,-5.8641,-5.8743,-5.8905,-5.898,-5.8954,-5.9221,-5.9147,-5.9156,-5.9166,-5.9257,-5.9279,-5.93,-5.9031,-5.9029,-5.9028,0,0,-5.796,-5.8029,-5.8152,-5.8222,-5.8328,-5.8371,-5.84,-5.8506,-5.8541,-5.8691,-5.8694,-5.8791,-5.8978,-5.9051,-5.9112,-5.929,-5.9288,-5.9323,-5.9401,-5.9492,-5.9511,-5.9528,-5.9593,-5.9615,-5.9339,-5.9339,-5.9339,0,-5.8013,-5.8178,-5.8215,-5.8334,-5.8402,-5.8406,-5.8531,-5.8597,-5.8732,-5.8779,-5.8747,-5.8981,-5.905,-5.9229,-5.9273,-5.9322,-5.9357,-5.9311,-5.9505,-5.9523,-5.954,-5.9601,-5.9625,-5.9342,-5.9342,-5.9342,-5.9341,0,-5.8238,-5.8353,-5.8439,-5.8569,-5.8646,-5.8767,-5.8822,-5.8896,-5.891,-5.8956,-5.9108,-5.9191,-5.9313,-5.9357,-5.9372,-5.9538,-5.9519,-5.9496,-5.944,-5.9566,-5.9624,-5.9648,-5.9348,-5.9346,-5.9345,-5.9344,0,0,-5.8414,-5.8561,-5.8592,-5.8651,-5.8767,-5.8857,-5.8977,-5.9096,-5.9159,-5.9251,-5.9354,-5.9511,-5.949,-5.9559,-5.9583,-5.9663,-5.9799,-5.963,-5.9633,-5.9659,-5.9988,-6.0005,-6.0032,-5.9797,-5.9802,-5.9806,-5.9979,0,-5.858,-5.8795,-5.8831,-5.9019,-5.9126,-5.9131,-5.9236,-5.9319,-5.9365,-5.9462,-5.9513,-5.9623,-5.9588,-5.963,-5.9709,-5.9766,-5.9866,-5.9754,-5.9894,-5.9898,-5.9869,-6.0062,-6.0081,-6.0241,-6.0002,-6.0006,-6.0009,0,-5.8802,-5.8899,-5.9098,-5.9199,-5.9246,-5.934,-5.9451,-5.9544,-5.9637,-5.9665,-5.9742,-5.9756,-5.9881,-5.9819,-5.9992,-5.9915,-5.9974,-6.0011,-6.0018,-6.0034,-5.9962,-6.0084,-6.0293,-6.0317,-6.0046,-6.0043,-6.004,0,-5.8911,-5.9092,-5.9235,-5.9284,-5.9406,-5.9472,-5.9525,-5.9614,-5.9683,-5.978,-5.9825,-5.9936,-5.9997,-6.0082,-6.0125,-6.0075,-6.0296,-6.0237,-6.0323,-6.0322,-6.037,-6.0367,-6.0593,-6.0407,-6.0406,-6.0406,-6.0405,0,-5.9093,-5.9215,-5.9285,-5.9373,-5.9509,-5.9549,-5.9683,-5.9735,-5.9814,-5.9912,-5.9923,-6.0014,-6.0065,-6.0164,-6.0199,-6.0338,-6.0365,-6.0391,-6.0399,-6.0391,-6.0388,-6.0431,-6.0421,-6.0412,-6.0411,-6.041,-6.0408,0,-5.9239,-5.9291,-5.9447,-5.9548,-5.9576,-5.9672,-5.9759,-5.9845,-5.9889,-6.0013,-6.0045,-6.0115,-6.0233,-6.0284,-6.0428,-6.0451,-6.061,-6.0609,-6.0578,-6.0581,-6.0665,-6.0657,-6.0928,-6.0966,-6.0753,-6.0755,-6.0757,0,-5.9352,-5.9446,-5.9557,-5.9623,-5.9678,-5.9785,-5.9855,-5.9897,-5.997,-6.0082,-6.0154,-6.0271,-6.0368,-6.0554,-6.0619,-6.0729,-6.0732,-6.0819,-6.0748,-6.0737,-6.0734,-6.0728,-6.0738,-6.0832,-6.0834,-6.0836,-6.0837,0,-5.9548,-5.9568,-5.9669,-5.9778,-5.9861,-5.995,-6.0036,-6.009,-6.0145,-6.0226,-6.0346,-6.042,-6.0567,-6.0683,-6.0797,-6.0852,-6.0855,-6.0859,-6.0885,-6.0878,-6.0857,-6.087,-6.0615,-6.0853,-6.0851,-6.085,-6.0849,-6.0849,-5.9682,-5.9765,-5.9856,-5.9967,-6.0036,-6.0117,-6.0202,-6.0257,-6.0357,-6.048,-6.0498,-6.0626,-6.0716,-6.087,-6.0929,-6.1029,-6.1008,-6.1045,-6.1055,-6.1064,-6.107,-6.0839,-6.105,-6.105,-6.105,-6.1049,-6.1049,0,-5.9878,-5.9937,-6.0039,-6.0159,-6.0246,-6.0239,-6.0334,-6.0408,-6.052,-6.0604,-6.0698,-6.0835,-6.0948,-6.102,-6.1134,-6.12,-6.1204,-6.1229,-6.1225,-6.1238,-6.1082,-6.1049,-6.1224,-6.1224,-6.1224,-6.1224,-6.1224,-6.1224,-5.9991,-6.0132,-6.0163,-6.0338,-6.0396,-6.0521,-6.0575,-6.0649,-6.0716,-6.0869,-6.0962,-6.1009,-6.1088,-6.1207,-6.131,-6.1329,-6.137,-6.1396,-6.1414,-6.1267,-6.1249,-6.1231,-6.12,-6.1405,-6.1405,-6.1561,-6.1563,-6.1564]}]]